Location: Little Arabia
(41.4620°N, 81.7687°W)
Time: 19:57:18
(UTC+00:00)

COSMO-SKYMED 1 - Pass Details

Date: 29 October 2020
Orbit: 621 x 623 km, 97.9° (Epoch: 03 December)

Event Time Altitude Azimuth Distance (km) Brightness Sun altitude
Rises 23:31:29 0° 13° (NNE) 2,912 5.8 -13.0°
Reaches altitude 10° 23:33:41 10° 14° (NNE) 2,001 5.0 -13.4°
Maximum altitude 23:38:03 84° 104° (ESE) 631 2.5 -14.2°
Drops below altitude 10° 23:42:23 10° 192° (SSW) 1,984 5.4 -15.0°
Sets 23:44:33 0° 193° (SSW) 2,885 6.2 -15.4°
